Zurück zum Katalog

SL-8 DEB *

AktivLEO
NORAD 18519·DEBRIS·🇷🇺 Russia

Gestartet Feb 21, 1984 von Plesetsk Cosmodrome

Loading…

Nächste Überflüge (nächste 24 Stunden)

TLE

AktuellSource: Space-Track

Epoche: Sep 14, 2026, 09:34 UTC

1 18519U 84019D   26257.39875374  .00001617  00000-0  25557-3 0  9996
2 18519  74.0402 128.6651 0008168 139.9945 220.1831 14.73175569 74281

Verfolge SL-8 DEB * in Echtzeit mit AllMySat

Download on the App Store